Location: ??????
(38.3184°N, 23.6932°E)
Time: 00:55:18
(UTC+00:00)

N. Korean satellite - Visible Passes

Search period start: 29 November 2022 00:00
Search period end: 09 December 2022 00:00
Orbit: 422 x 454 km, 97.3° (Epoch: 28 November)

Date Brightness Start Highest point End Pass type
(mag) Time Alt. Az. Time Alt. Az. Time Alt. Az.
29 Nov 6.4 03:40:00 10° NNE 03:43:25 80° E 03:46:48 10° S visible
29 Nov 9.4 15:40:51 10° SSW 15:43:27 21° W 15:46:06 10° NW visible
30 Nov 9.0 03:01:57 10° NE 03:04:38 21° E 03:07:17 10° SSE visible
30 Nov 7.9 04:34:37 10° NNW 04:36:59 18° WNW 04:39:20 10° WSW visible
01 Dec 6.3 03:55:05 10° N 03:58:27 60° WNW 04:01:47 10° SSW visible
01 Dec 9.8 15:56:49 10° SW 15:58:34 13° W 16:00:19 10° WNW visible
02 Dec 8.1 03:16:32 10° NNE 03:19:40 34° E 03:22:45 10° SSE visible
02 Dec 8.3 04:50:34 10° NW 04:51:49 12° WNW 04:53:03 10° W visible
03 Dec 10.0 02:40:12 10° E 02:40:38 10° E 02:41:04 10° E visible
03 Dec 6.9 04:10:09 10° N 04:13:17 36° WNW 04:16:24 10° SW visible
04 Dec 7.0 03:31:10 10° NNE 03:34:31 56° E 03:37:49 10° S visible
04 Dec 8.8 15:31:28 10° SSW 15:34:24 28° W 15:37:23 10° NW visible
05 Dec 9.4 02:53:19 10° NE 02:55:29 16° E 02:57:38 10° SE visible
05 Dec 7.5 04:25:13 10° NNW 04:27:56 23° WNW 04:30:39 10° SW visible
06 Dec 6.2 03:45:46 10° N 03:49:11 85° W 03:52:31 10° SSW visible
06 Dec 9.6 15:46:43 10° SW 15:49:06 18° W 15:51:32 10° NW visible
07 Dec 8.7 03:07:19 10° NE 03:10:09 24° E 03:12:56 10° SSE visible
07 Dec 8.0 04:40:23 10° NNW 04:42:25 15° WNW 04:44:26 10° WSW visible
08 Dec 6.5 04:00:22 10° N 04:03:39 50° WNW 04:06:53 10° SSW visible
08 Dec 9.9 16:02:22 10° WSW 16:03:40 12° W 16:04:59 10° WNW visible
